Destin, FL

4:54 AM CDT on April 19, 2018 (GMT -0500)
Destin-Fort Walton Beach

Weather History for KDTS - January, 2013

Change the Weather History Date:

Wednesday, January 2, 2013

  Actual Average Record
Temperature  
Mean Temperature 58 °F -  
Max Temperature 66 °F 58 °F 77 °F (2017)
Min Temperature 51 °F 43 °F 25 °F (2001)
Degree Days  
Heating Degree Days 6    
Growing Degree Days 8 (Base 50)    
Moisture  
Dew Point 52 °F    
Average Humidity 81    
Maximum Humidity 94    
Minimum Humidity 60    
Precipitation  
Precipitation 0.03 in - - ()
Sea Level Pressure  
Sea Level Pressure 30.04 in    
Wind  
Wind Speed 9 mph (North)    
Max Wind Speed 15 mph    
Max Gust Speed 20 mph    
Visibility 10 miles    
Events Rain    
Averages and records for this station are not official NWS values.
T = Trace of Precipitation, MM = Missing Value Source: NWS Daily Summary

Daily Weather History Graph

Daily Weather History Graph

Search for Another Location

Airport or City:

Trip Planner

Search our weather history database for the weather conditions in past years. The results will help you decide how hot, cold, wet, or windy it might be!

Date:

Astronomy

Jan. 02, 2013 Rise Set
Actual Time 6:43 AM CST 4:57 PM CST
Civil Twilight 6:16 AM CST 5:23 PM CST
Nautical Twilight 5:46 AM CST 5:53 PM CST
Astronomical Twilight 5:17 AM CST 6:22 PM CST
Moon 10:04 PM CST (1/2) 9:47 AM CST (1/2)
Length of Visible Light 11h 07m
Length of Day
10h 14m
Waning Gibbous, 75% of the Moon is Illuminated
Jan 2
Waning Gibbous
Jan 4
Last Quarter
Jan 11
New
Jan 18
First Quarter
Jan 26
Full

Hourly Weather History & Observations

Time (CST) Temp. Dew Point Humidity Pressure Visibility Wind Dir Wind Speed Gust Speed Precip Events Conditions
12:53 AM 66.9 °F 64.0 °F 90% 29.96 in 10.0 mi Variable 4.6 mph - 0.03 in   Overcast
1:10 AM 66.2 °F 62.6 °F 88% 29.96 in 10.0 mi Variable 3.5 mph - N/A   Scattered Clouds
1:35 AM 64.4 °F 62.6 °F 94% 29.97 in 8.0 mi WSW 3.5 mph - N/A   Mostly Cloudy
1:46 AM 64.4 °F 62.6 °F 94% 29.97 in 8.0 mi NNW 13.8 mph - N/A   Overcast
1:53 AM 63.0 °F 60.1 °F 90% 29.98 in 10.0 mi NNW 15.0 mph - N/A   Overcast
2:05 AM 62.6 °F 59.0 °F 88% 29.98 in 10.0 mi NNW 10.4 mph - N/A   Overcast
2:42 AM 60.8 °F 57.2 °F 88% 29.98 in 10.0 mi NNW 9.2 mph - N/A   Overcast
2:53 AM 60.1 °F 57.9 °F 93% 29.99 in 10.0 mi North 11.5 mph - N/A   Overcast
3:11 AM 59.0 °F 55.4 °F 88% 29.98 in 10.0 mi North 11.5 mph - N/A   Overcast
3:44 AM 59.0 °F 55.4 °F 88% 29.99 in 10.0 mi North 13.8 mph - N/A   Overcast
3:53 AM 57.9 °F 54.0 °F 87% 29.99 in 10.0 mi North 15.0 mph - N/A   Overcast
4:53 AM 57.9 °F 54.0 °F 87% 30.00 in 10.0 mi North 11.5 mph - N/A   Overcast
5:38 AM 57.2 °F 53.6 °F 88% 30.02 in 9.0 mi North 13.8 mph - N/A   Overcast
5:53 AM 55.9 °F 53.1 °F 90% 30.02 in 4.0 mi North 12.7 mph - 0.00 in Rain Light Rain
5:58 AM 55.4 °F 53.6 °F 94% 30.02 in 5.0 mi North 12.7 mph - 0.00 in Rain Light Rain
6:05 AM 55.4 °F 53.6 °F 94% 30.02 in 9.0 mi North 12.7 mph - 0.00 in Rain Light Rain
6:16 AM 55.4 °F 51.8 °F 88% 30.03 in 10.0 mi North 12.7 mph - 0.00 in   Overcast
6:30 AM 55.4 °F 51.8 °F 88% 30.04 in 10.0 mi North 13.8 mph - 0.00 in   Overcast
6:53 AM 55.9 °F 52.0 °F 87% 30.04 in 10.0 mi North 11.5 mph - 0.00 in   Overcast
7:53 AM 55.0 °F 51.1 °F 86% 30.06 in 10.0 mi North 12.7 mph - N/A   Overcast
8:28 AM 55.4 °F 50.0 °F 82% 30.08 in 10.0 mi North 10.4 mph 19.6 mph N/A   Overcast
8:53 AM 55.9 °F 50.0 °F 80% 30.08 in 10.0 mi North 9.2 mph - N/A   Overcast
9:53 AM 57.0 °F 50.0 °F 77% 30.10 in 10.0 mi North 9.2 mph - N/A   Overcast
10:36 AM 60.8 °F 50.0 °F 68% 30.10 in 10.0 mi North 9.2 mph - N/A   Scattered Clouds
10:53 AM 60.1 °F 50.0 °F 69% 30.09 in 10.0 mi North 6.9 mph - N/A   Scattered Clouds
11:53 AM 62.1 °F 50.0 °F 65% 30.06 in 10.0 mi North 9.2 mph - N/A   Mostly Cloudy
12:53 PM 64.0 °F 50.0 °F 60% 30.04 in 10.0 mi North 8.1 mph - N/A   Overcast
1:53 PM 63.0 °F 48.9 °F 60% 30.03 in 10.0 mi North 4.6 mph - N/A   Overcast
2:53 PM 63.0 °F 50.0 °F 63% 30.04 in 10.0 mi North 3.5 mph - N/A   Overcast
3:53 PM 61.0 °F 48.0 °F 62% 30.05 in 10.0 mi NNW 6.9 mph - N/A   Overcast
4:53 PM 57.9 °F 51.1 °F 78% 30.08 in 10.0 mi NNW 5.8 mph - 0.00 in Rain Light Rain
5:53 PM 57.9 °F 48.9 °F 72% 30.11 in 10.0 mi NW 8.1 mph - 0.00 in   Overcast
6:53 PM 55.9 °F 46.9 °F 72% 30.13 in 10.0 mi North 10.4 mph - N/A   Overcast
7:53 PM 54.0 °F 46.0 °F 75% 30.12 in 10.0 mi North 11.5 mph - N/A   Overcast
8:53 PM 53.1 °F 45.0 °F 74% 30.13 in 10.0 mi North 10.4 mph - N/A   Overcast
9:53 PM 52.0 °F 44.1 °F 74% 30.14 in 10.0 mi North 11.5 mph - N/A   Overcast
10:53 PM 51.1 °F 44.1 °F 77% 30.15 in 10.0 mi North 12.7 mph - N/A   Overcast
11:53 PM 51.1 °F 43.0 °F 74% 30.14 in 10.0 mi North 8.1 mph - N/A   Overcast